Date,TemperatureHighF,TemperatureAvgF,TemperatureLowF,DewpointHighF,DewpointAvgF,DewpointLowF,HumidityHigh,HumidityAvg,HumidityLow,PressureMaxIn,PressureMinIn,WindSpeedMaxMPH,WindSpeedAvgMPH,GustSpeedMaxMPH,PrecipitationSumIn
2014-1-1,49,36,25,28,22,18,82,58,33,30.30,30.01,7,1,8,0.00
2014-1-2,38,27,14,32,22,5,91,80,61,30.32,29.84,6,2,16,0.21
2014-1-3,22,14,7,7,2,-3,68,58,42,30.56,30.32,3,1,7,0.01
2014-1-4,41,28,15,21,12,5,69,53,34,30.32,30.05,13,3,16,0.06
2014-1-5,49,38,28,39,31,18,92,74,47,30.08,29.45,5,1,12,0.55
2014-1-6,28,5,-4,21,-4,-15,77,65,54,30.50,29.75,7,3,17,0.00
2014-1-7,14,5,-4,1,-9,-16,66,54,43,30.59,30.45,8,4,12,0.00
2014-1-8,32,22,11,21,9,-1,71,58,47,30.51,30.41,5,2,7,0.00
2014-1-9,39,33,27,32,24,19,90,71,45,30.54,30.30,7,1,7,0.04
2014-1-10,53,43,34,47,40,32,93,87,79,30.30,29.71,6,1,9,0.01
2014-1-11,54,47,38,50,40,28,94,79,61,29.83,29.49,9,3,16,0.55
2014-1-12,48,40,36,31,30,27,80,66,50,30.08,29.83,7,2,10,0.00
2014-1-13,54,48,41,47,37,27,90,67,45,29.90,29.71,11,4,19,0.12
2014-1-14,50,42,34,42,31,20,84,66,36,29.95,29.75,7,2,11,0.02
2014-1-15,34,29,24,21,17,14,75,62,52,30.13,29.95,3,2,7,0.00
2014-1-16,33,26,19,28,18,11,86,72,57,30.09,29.79,9,3,11,0.00
2014-1-17,33,25,14,31,18,4,90,75,54,30.13,29.77,6,2,11,0.00
2014-1-18,28,22,15,24,14,5,87,71,50,30.12,29.80,7,3,11,0.00
2014-1-19,38,32,26,29,22,18,90,68,51,30.03,29.78,10,4,13,0.07
2014-1-20,47,40,35,30,25,22,79,56,47,29.92,29.72,6,2,11,0.00
2014-1-21,35,20,9,31,12,-5,91,72,52,30.25,29.79,6,2,14,0.01
2014-1-22,18,9,0,12,-1,-7,78,62,45,30.25,30.09,6,2,11,0.00
2014-1-23,18,10,6,13,-2,-6,79,58,45,30.69,30.11,4,2,11,0.00
2014-1-24,23,11,-1,2,-3,-8,73,55,35,30.69,29.92,12,5,18,0.00
2014-1-25,36,24,15,29,14,0,88,69,34,29.96,29.54,12,5,17,0.06
2014-1-26,48,28,13,28,12,-2,75,52,37,29.97,29.59,6,2,12,0.00
2014-1-27,44,17,5,30,0,-9,75,48,34,30.49,29.60,10,3,21,0.00
2014-1-28,12,5,-3,-7,-12,-17,60,46,27,30.56,30.41,5,1,11,0.00
2014-1-29,26,12,-1,4,-3,-9,71,52,30,30.43,30.34,7,1,12,0.00
2014-1-30,35,23,9,8,2,-2,63,42,24,30.34,29.97,9,2,18,0.00
2014-1-31,44,38,34,20,10,4,50,31,25,30.16,30.03,4,1,11,0.00
2014-2-1,60,47,37,40,27,17,70,46,32,30.09,29.82,7,1,11,0.00
2014-2-2,50,36,30,43,30,22,87,79,68,30.24,29.92,4,2,11,0.20
2014-2-3,38,30,26,24,18,13,82,62,37,30.38,30.13,4,1,11,0.02
2014-2-4,33,28,24,27,19,15,89,69,54,30.41,29.91,5,1,11,0.00
2014-2-5,32,29,26,30,25,19,92,83,69,30.40,29.72,7,1,12,0.01
2014-2-6,27,23,15,20,14,3,79,68,56,30.50,30.40,4,1,11,0.01
2014-2-7,26,15,6,8,0,-5,65,51,31,30.55,30.40,3,1,11,0.00
2014-2-8,28,22,16,22,11,0,79,63,48,30.41,30.18,3,1,11,0.00
2014-2-9,32,28,23,26,20,10,88,72,54,30.27,30.09,3,1,11,0.00
2014-2-10,28,19,12,11,6,2,69,57,37,30.45,30.26,3,1,11,0.02
2014-2-11,25,15,6,5,2,-3,70,55,38,30.55,30.45,3,1,11,0.00
2014-2-12,41,22,9,13,6,-1,66,51,28,30.45,30.04,2,0,11,0.16
2014-2-13,50,32,19,17,10,0,60,41,16,30.04,29.65,5,0,11,0.16
2014-2-14,36,32,23,30,22,15,89,67,42,29.80,29.62,5,1,11,0.02
2014-2-15,34,26,20,18,15,13,81,65,45,30.14,29.80,5,1,11,0.23
2014-2-16,34,28,24,24,20,13,86,72,59,30.34,30.00,3,1,11,0.04
2014-2-17,40,29,20,36,21,12,90,70,55,30.34,29.76,10,3,19,0.45
2014-2-18,54,44,36,30,27,21,73,53,28,30.13,29.81,8,3,17,0.00
2014-2-19,53,46,38,41,33,27,85,62,44,30.08,29.70,5,1,11,0.06
2014-2-20,70,54,35,58,43,29,86,68,51,30.04,29.46,15,4,18,0.38
2014-2-21,52,44,37,47,23,10,85,47,21,29.99,29.53,12,5,19,0.04
2014-2-22,62,49,37,31,21,14,58,34,20,30.09,29.92,7,3,13,0.00
2014-2-23,43,37,29,33,27,14,86,68,48,30.22,30.01,3,1,11,0.02
2014-2-24,40,31,24,17,11,5,63,46,24,30.31,30.20,4,1,13,0.00
2014-2-25,36,30,25,18,15,11,74,54,41,30.23,30.11,4,1,11,0.00
2014-2-26,30,22,14,18,3,-4,68,43,26,30.25,29.93,6,2,20,0.00
2014-2-27,32,24,16,9,0,-10,52,37,19,30.21,29.83,8,3,11,0.00
2014-2-28,41,26,12,15,2,-1,58,39,19,30.30,30.11,3,1,11,0.00
2014-3-1,55,42,28,33,24,8,60,48,35,30.20,30.09,5,1,11,0.00
2014-3-2,43,29,18,28,23,13,87,80,53,30.28,30.13,5,0,11,0.18
2014-3-3,25,19,15,14,7,1,83,60,37,30.46,30.26,3,0,11,0.00
2014-3-4,41,24,11,19,10,1,70,54,31,30.43,30.20,2,0,7,0.04
2014-3-5,42,31,20,19,16,11,83,57,29,30.36,30.21,4,1,7,0.00
2014-3-6,50,35,23,25,18,11,63,50,30,30.35,30.09,3,1,7,0.00
2014-3-7,65,44,29,31,26,23,82,55,23,30.09,29.93,1,0,3,0.00
2014-3-8,61,44,32,36,31,26,86,63,29,30.17,29.97,5,1,8,0.00
2014-3-9,53,40,33,30,25,19,85,58,29,30.30,30.04,4,1,8,0.00
2014-3-10,65,52,39,36,30,23,67,46,28,30.04,29.72,11,3,18,0.00
2014-3-11,76,62,50,42,37,29,65,42,18,29.75,29.54,7,2,10,0.00
2014-3-12,64,43,27,52,35,14,92,72,35,30.03,29.21,10,3,12,0.40
2014-3-13,42,30,19,15,11,7,70,46,25,30.26,30.03,6,2,11,0.00
2014-3-14,64,50,35,34,23,14,49,36,23,30.12,29.77,18,7,26,0.00
2014-3-15,64,54,43,42,29,20,71,41,22,30.08,29.84,9,1,12,0.00
2014-3-16,47,35,30,28,16,4,63,47,31,30.16,30.00,7,3,12,0.00
2014-3-17,42,33,26,23,16,11,57,49,39,30.02,29.85,4,1,8,0.00
2014-3-18,58,40,29,36,27,22,81,62,42,29.98,29.89,7,2,12,0.00
2014-3-19,56,49,43,48,42,33,89,74,61,30.02,29.76,11,4,19,0.30
2014-3-20,57,46,36,34,27,24,70,49,31,30.14,30.00,5,2,21,0.00
2014-3-21,71,55,38,32,28,23,77,40,17,30.03,29.81,9,3,20,0.00
2014-3-22,59,51,42,34,29,24,62,43,26,30.19,29.79,9,3,17,0.00
2014-3-23,44,38,31,27,17,10,65,44,26,30.36,30.18,6,3,17,0.00
2014-3-24,48,35,25,13,10,6,59,37,20,30.40,30.12,3,1,17,0.00
2014-3-25,41,34,28,28,15,10,80,46,33,30.22,30.01,6,2,17,0.02
2014-3-26,45,33,23,16,9,5,64,39,20,30.42,30.22,4,1,17,0.00
2014-3-27,60,46,32,25,18,13,54,34,18,30.27,29.79,8,3,17,0.01
2014-3-28,64,56,47,52,43,27,86,64,32,30.09,29.77,14,5,22,0.19
2014-3-29,48,42,37,39,35,29,89,79,66,30.13,29.90,7,3,18,0.82
2014-3-30,60,44,32,31,26,23,75,53,26,30.23,30.13,5,1,17,0.00
2014-3-31,71,52,34,34,28,22,86,48,17,30.23,29.97,5,1,17,0.00
2014-4-1,77,65,52,36,29,21,49,28,14,30.04,29.90,12,3,25,0.00
2014-4-2,64,54,47,52,44,26,90,72,26,30.16,29.98,4,1,17,0.54
2014-4-3,66,58,53,59,54,51,93,88,75,30.03,29.66,6,1,17,1.15
2014-4-4,65,56,44,58,48,29,93,76,54,29.99,29.49,11,4,17,0.65
2014-4-5,58,47,40,31,27,23,59,46,27,30.19,29.99,5,2,17,0.00
2014-4-6,63,50,35,32,29,22,84,49,24,30.19,29.93,4,1,17,0.00
2014-4-7,58,52,47,54,44,31,92,75,45,29.93,29.33,14,2,20,0.97
2014-4-8,65,52,45,46,42,39,87,68,41,29.82,29.52,5,1,17,0.03
2014-4-9,68,55,43,42,33,25,74,47,21,30.04,29.82,5,1,17,0.00
2014-4-10,76,61,44,39,35,30,75,41,22,30.05,29.82,15,6,22,0.00
2014-4-11,78,69,58,49,40,31,53,36,25,30.07,29.91,9,3,17,0.00
2014-4-12,81,65,47,51,45,39,80,52,29,30.14,29.86,9,2,17,0.00
2014-4-13,85,75,67,53,47,36,55,39,19,29.92,29.71,14,6,22,0.00
2014-4-14,75,64,43,59,53,39,87,69,34,29.79,29.63,14,7,24,0.51
2014-4-15,44,37,34,38,24,14,90,62,37,30.28,29.78,6,3,17,0.19
2014-4-16,54,41,29,24,16,8,78,38,21,30.44,30.25,5,2,17,0.00
2014-4-17,71,55,38,40,28,20,65,39,20,30.36,30.23,8,2,17,0.00
2014-4-18,77,59,45,43,37,31,81,49,20,30.29,30.17,3,0,17,0.00
2014-4-19,73,62,50,43,36,28,63,40,20,30.30,30.20,6,1,17,0.00
2014-4-20,82,65,48,46,33,28,58,34,15,30.26,30.08,5,1,17,0.00
2014-4-21,82,66,48,51,43,37,84,48,21,30.08,29.83,6,1,17,0.00
2014-4-22,75,65,50,55,43,26,77,48,18,29.95,29.75,7,2,18,0.00
2014-4-23,66,53,42,35,29,25,62,41,25,30.10,29.95,4,1,13,0.00
2014-4-24,71,59,49,36,26,16,49,32,15,30.11,29.75,6,2,13,0.00
2014-4-25,68,60,53,57,45,22,91,61,23,29.90,29.62,4,1,13,0.19
2014-4-26,85,68,50,46,40,35,82,42,18,29.92,29.83,6,1,13,0.00
2014-4-27,81,66,50,42,39,34,56,39,24,30.02,29.82,6,2,13,0.00
2014-4-28,73,64,53,63,52,38,92,69,34,29.86,29.63,9,2,13,1.19
2014-4-29,81,67,55,61,54,40,89,67,24,29.87,29.50,17,3,17,0.44
2014-4-30,74,62,56,57,49,39,89,67,31,29.88,29.73,9,2,13,0.04
2014-5-1,61,56,50,45,36,29,67,48,31,29.90,29.85,13,4,18,0.00
2014-5-2,61,55,48,41,38,34,64,52,41,29.91,29.86,7,3,13,0.00
2014-5-3,73,60,46,40,36,27,76,45,20,29.93,29.80,9,2,17,0.00
2014-5-4,81,67,57,42,37,25,48,34,22,30.01,29.89,5,2,13,0.00
2014-5-5,77,61,51,46,37,25,54,41,30,30.01,29.77,6,1,13,0.00
2014-5-6,80,65,52,46,40,36,56,42,27,29.96,29.86,4,1,13,0.00
2014-5-7,89,73,56,54,49,44,81,46,25,29.96,29.87,10,3,16,0.00
2014-5-8,89,76,60,58,53,45,84,50,25,30.04,29.92,10,3,18,0.00
2014-5-9,79,71,64,61,56,51,74,59,46,29.97,29.82,14,4,18,0.02
2014-5-10,75,68,64,64,60,54,85,77,60,30.00,29.89,9,3,16,0.14
2014-5-11,87,72,57,64,59,54,94,69,39,30.13,29.95,7,2,13,0.03
2014-5-12,90,77,65,66,63,56,90,64,37,30.07,29.93,9,3,14,0.24
2014-5-13,90,78,66,64,60,49,90,60,28,30.03,29.94,13,3,18,0.00
2014-5-14,79,69,64,66,63,59,90,80,55,30.07,29.84,5,1,7,0.39
2014-5-15,68,57,50,64,49,38,89,75,59,30.07,29.72,9,3,16,0.43
2014-5-16,60,50,42,45,39,32,92,69,38,30.07,29.96,7,1,14,0.10
2014-5-17,61,52,44,46,38,31,84,62,34,30.25,30.05,5,1,8,0.04
2014-5-18,72,56,41,45,36,27,93,55,23,30.30,30.22,3,1,7,0.00
2014-5-19,76,61,44,45,39,32,87,52,22,30.30,30.09,4,1,13,0.00
2014-5-20,82,70,55,59,52,41,66,53,41,30.12,29.93,9,2,18,0.00
2014-5-21,86,74,65,65,61,56,83,64,48,29.96,29.81,15,3,16,0.18
2014-5-22,88,75,65,65,56,44,83,57,24,30.03,29.88,6,2,8,0.00
2014-5-23,82,70,60,49,44,39,60,41,23,30.11,30.02,4,1,7,0.00
2014-5-24,83,69,53,54,47,42,85,51,25,30.20,30.08,3,1,7,0.00
2014-5-25,86,72,58,56,50,44,84,52,24,30.16,30.04,5,1,10,0.00
2014-5-26,93,76,59,65,58,54,87,57,31,30.12,29.95,6,1,9,0.00
2014-5-27,94,82,71,66,62,55,80,54,29,30.00,29.88,9,2,12,0.00
2014-5-28,94,80,72,66,60,54,80,53,30,29.98,29.89,6,1,11,0.04
2014-5-29,83,75,69,68,66,63,89,73,53,30.03,29.94,4,0,7,0.01
2014-5-30,90,76,65,68,54,39,89,50,18,30.11,30.02,5,1,10,0.00
2014-5-31,89,76,62,57,50,41,80,45,20,30.17,30.05,6,1,11,0.00
2014-6-1,94,77,62,69,58,51,82,55,24,30.12,29.97,12,1,12,0.00
2014-6-2,85,78,73,68,64,59,80,61,48,30.09,29.94,9,4,14,0.03
2014-6-3,89,78,72,69,67,61,85,71,43,29.98,29.88,7,3,15,0.05
2014-6-4,83,72,67,73,66,59,92,80,56,29.89,29.63,6,1,10,1.48
2014-6-5,83,71,61,59,52,44,81,55,27,29.92,29.77,4,1,11,0.00
2014-6-6,86,72,60,55,48,39,83,47,20,29.99,29.91,4,1,7,0.00
2014-6-7,88,74,58,56,50,43,83,49,22,30.03,29.80,6,1,10,0.00
2014-6-8,77,72,66,63,58,53,81,62,49,29.95,29.68,10,2,13,0.01
2014-6-9,77,69,61,61,57,52,90,67,47,29.96,29.87,3,1,7,0.00
2014-6-10,82,69,64,69,63,59,92,80,57,29.89,29.78,2,0,7,0.59
2014-6-11,81,72,67,66,64,62,87,77,54,29.80,29.70,7,2,10,0.16
2014-6-12,83,73,66,64,62,58,90,69,46,29.85,29.74,6,1,10,0.00
2014-6-13,84,74,66,64,54,40,82,54,26,30.00,29.79,5,1,7,0.02
2014-6-14,83,69,53,52,44,38,78,43,24,30.13,30.01,4,1,8,0.00
2014-6-15,93,75,56,63,55,51,87,54,31,30.09,29.94,8,2,16,0.00
2014-6-16,94,83,74,68,64,60,65,52,37,30.09,30.00,6,1,11,0.00
2014-6-17,94,84,73,68,65,62,75,54,34,30.08,29.92,12,3,17,0.00
2014-6-18,95,86,77,69,66,61,72,54,34,30.06,29.93,7,2,9,0.00
2014-6-19,99,82,73,69,66,61,84,60,34,30.05,29.96,5,1,11,0.07
2014-6-20,94,77,72,72,69,67,89,77,44,30.03,29.88,6,1,7,0.39
2014-6-21,92,80,72,71,65,56,91,64,32,29.93,29.83,3,1,7,0.00
2014-6-22,97,81,69,67,63,58,81,57,28,29.92,29.80,4,1,7,0.00
2014-6-23,96,83,72,67,64,59,82,56,31,29.91,29.82,6,2,16,0.02
2014-6-24,93,81,74,70,66,62,77,62,37,29.93,29.80,7,2,14,0.03
2014-6-25,93,78,72,69,67,62,88,72,37,29.96,29.83,6,1,13,0.01
2014-6-26,94,81,70,68,63,54,88,59,28,30.01,29.93,4,0,7,0.00
2014-6-27,95,81,70,70,63,55,84,60,27,30.04,29.97,9,1,16,0.05
2014-6-28,89,78,73,74,70,66,87,75,48,30.11,30.01,4,0,6,0.52
2014-6-29,89,80,73,71,68,66,84,69,50,30.07,29.97,8,2,12,0.00
2014-6-30,93,82,72,71,69,66,85,66,45,30.00,29.79,8,2,14,0.00
2014-7-1,95,84,73,74,70,66,84,66,41,29.86,29.72,9,2,11,0.32
2014-7-2,90,77,70,69,65,56,87,69,32,29.93,29.81,7,1,11,0.13
2014-7-3,78,71,64,63,56,45,82,61,33,30.13,29.94,6,1,7,0.00
2014-7-4,85,72,57,52,47,40,79,44,23,30.25,30.14,3,1,9,0.00
2014-7-5,88,74,58,55,49,41,85,47,20,30.30,30.09,4,1,6,0.00
2014-7-6,88,76,63,58,54,49,78,50,27,30.09,29.89,7,2,13,0.00
2014-7-7,90,80,73,68,62,58,72,54,41,29.89,29.74,12,6,17,0.07
2014-7-8,87,79,72,69,66,62,80,65,45,29.83,29.71,11,4,20,0.04
2014-7-9,90,78,69,67,60,49,87,57,28,29.97,29.83,7,1,11,0.29
2014-7-10,93,79,68,61,55,49,75,48,23,30.11,29.97,4,1,10,0.00
2014-7-11,93,79,65,60,55,49,76,47,26,30.18,30.08,2,0,5,0.00
2014-7-12,92,80,66,66,62,56,82,56,34,30.13,29.99,7,1,13,0.00
2014-7-13,94,82,76,73,68,65,85,63,43,29.98,29.85,8,2,11,0.40
2014-7-14,89,77,71,71,67,59,89,73,45,29.90,29.78,7,1,11,0.34
2014-7-15,82,73,66,65,53,42,84,53,26,29.93,29.79,4,1,10,0.00
2014-7-16,82,70,58,54,50,42,84,53,29,30.00,29.92,3,0,7,0.00
2014-7-17,85,71,58,56,49,43,85,51,25,30.10,30.00,2,0,6,0.00
2014-7-18,79,68,61,62,56,49,90,66,35,30.15,30.08,4,0,7,0.20
2014-7-19,76,70,65,64,62,61,89,75,61,30.08,29.99,2,0,5,0.02
2014-7-20,88,76,67,66,65,61,90,71,44,30.03,29.96,1,0,5,0.02
2014-7-21,95,80,68,68,65,56,89,63,28,30.08,30.00,2,0,4,0.00
2014-7-22,100,85,72,70,66,57,85,57,27,30.08,29.96,4,0,7,0.00
2014-7-23,84,78,71,70,67,65,83,71,54,30.06,29.91,6,1,10,0.27
2014-7-24,80,72,64,66,55,47,87,58,32,30.04,29.95,3,1,11,0.02
2014-7-25,91,73,60,59,53,49,82,52,26,30.10,29.93,2,0,6,0.00
2014-7-26,90,79,70,72,63,58,84,59,44,29.97,29.78,8,2,14,0.28
2014-7-27,86,76,72,74,69,62,87,79,61,29.85,29.64,7,2,12,0.14
2014-7-28,80,71,64,61,57,51,80,62,44,29.98,29.76,4,1,11,0.00
2014-7-29,82,67,55,55,50,42,83,57,28,30.05,29.97,3,1,12,0.00
2014-7-30,87,72,62,59,57,53,81,60,33,30.04,29.98,7,1,11,0.00
2014-7-31,92,78,66,61,58,49,80,53,26,30.06,30.01,4,1,10,0.00
2014-8-1,90,77,65,64,59,52,85,57,29,30.08,29.99,1,0,10,0.00
2014-8-2,90,77,69,62,58,53,74,53,31,30.07,30.00,6,1,10,0.00
2014-8-3,94,77,64,62,59,50,86,58,23,30.12,30.02,4,0,10,0.00
2014-8-4,94,79,66,63,56,44,83,52,19,30.10,30.00,2,0,10,0.00
2014-8-5,90,77,66,64,60,53,82,59,29,30.04,29.96,3,0,10,0.00
2014-8-6,90,79,71,66,63,58,83,60,35,29.99,29.93,4,0,10,0.00
2014-8-7,86,75,67,63,55,50,69,51,30,30.07,29.98,4,1,10,0.00
2014-8-8,80,74,69,62,58,56,66,58,45,30.04,29.97,5,1,10,0.00
2014-8-9,86,76,68,68,64,62,85,68,50,30.00,29.93,4,1,10,0.00
2014-8-10,91,80,72,72,68,66,85,68,45,29.97,29.86,4,1,10,0.02
2014-8-11,89,79,75,73,70,65,84,74,48,29.89,29.74,8,2,12,0.29
2014-8-12,81,74,67,69,63,55,87,69,46,29.92,29.75,6,2,11,0.01
2014-8-13,88,74,62,57,54,48,80,53,26,30.02,29.92,3,1,10,0.00
2014-8-14,88,76,68,62,56,48,82,52,29,30.01,29.92,4,1,10,0.02
2014-8-15,88,72,59,56,44,28,68,42,12,30.05,29.95,2,0,10,0.00
2014-8-16,84,71,55,64,55,46,81,58,36,30.00,29.93,4,0,10,0.00
2014-8-17,85,78,73,68,64,62,75,63,50,29.95,29.85,3,1,10,0.00
2014-8-18,91,80,71,70,67,64,85,66,42,29.85,29.74,1,0,10,0.00
2014-8-19,93,82,72,70,67,63,86,63,38,29.82,29.74,5,1,11,0.00
2014-8-20,93,78,68,71,66,61,89,69,40,30.00,29.77,8,1,10,0.57
2014-8-21,88,78,72,74,70,66,89,77,55,30.06,29.94,3,0,6,0.26
2014-8-22,93,80,72,74,71,68,90,75,47,30.03,29.89,5,0,6,0.37
2014-8-23,95,82,75,75,72,67,89,72,41,29.96,29.86,4,0,6,0.39
2014-8-24,96,82,74,75,69,63,89,67,35,30.00,29.90,2,0,5,0.00
2014-8-25,96,83,73,70,68,64,84,62,35,30.04,29.97,4,0,5,0.00
2014-8-26,98,82,73,72,66,62,85,62,32,30.10,30.00,7,0,15,0.55
2014-8-27,99,83,72,72,69,64,88,65,34,30.05,29.94,3,0,11,0.00
2014-8-28,90,80,71,69,63,59,81,58,36,30.05,29.97,3,0,11,0.00
2014-8-29,97,80,69,70,62,57,72,55,31,30.05,29.92,4,1,11,0.00
2014-8-30,93,80,74,70,67,60,82,67,37,30.01,29.94,5,1,11,0.12
2014-8-31,85,78,74,71,69,66,87,75,55,30.01,29.92,7,2,11,0.06
2014-9-1,88,80,74,73,70,67,90,72,51,29.96,29.85,9,3,16,0.36
2014-9-2,83,77,68,71,69,62,89,76,57,29.96,29.87,7,1,11,0.56
2014-9-3,91,78,69,70,65,56,92,68,33,30.04,29.95,3,0,11,0.00
2014-9-4,97,81,67,70,65,61,89,64,33,30.07,29.99,3,0,11,0.00
2014-9-5,96,85,75,72,69,62,84,60,38,30.09,29.92,5,1,11,0.00
2014-9-6,85,76,69,70,65,57,88,69,52,30.09,29.95,7,1,11,0.15
2014-9-7,81,71,61,60,52,43,87,56,27,30.18,30.08,5,1,11,0.00
2014-9-8,90,74,60,60,53,50,76,52,28,30.11,29.97,2,0,11,0.00
2014-9-9,91,75,61,61,56,46,85,56,22,30.07,29.93,3,0,11,0.00
2014-9-10,86,79,69,68,66,60,80,65,53,29.95,29.73,10,4,19,0.00
2014-9-11,82,70,62,70,61,52,90,74,48,30.13,29.74,8,2,12,0.95
2014-9-12,67,63,58,54,52,50,79,67,54,30.19,30.10,3,1,11,0.00
2014-9-13,73,64,56,55,47,39,79,57,30,30.30,30.09,5,1,11,0.00
2014-9-14,78,63,50,51,45,40,82,58,27,30.31,30.16,1,0,11,0.00
2014-9-15,78,62,51,57,51,47,92,72,36,30.20,29.99,5,0,11,0.12
2014-9-16,63,61,58,57,52,46,91,75,59,30.15,30.06,3,1,11,0.01
2014-9-17,75,62,51,52,49,46,91,66,38,30.08,29.95,2,0,6,0.00
2014-9-18,77,64,52,52,47,40,90,59,28,30.10,29.99,4,0,10,0.00
2014-9-19,82,67,54,54,48,42,82,54,26,30.16,30.03,3,0,7,0.00
2014-9-20,86,72,58,63,60,54,89,67,43,30.07,29.88,10,3,14,0.00
2014-9-21,83,74,60,66,55,41,77,55,23,30.03,29.77,7,3,12,0.00
2014-9-22,70,59,49,48,42,36,76,55,29,30.26,30.03,4,1,6,0.00
2014-9-23,79,62,47,48,43,37,88,56,24,30.34,30.24,3,0,6,0.00
2014-9-24,84,66,52,51,46,37,82,53,21,30.35,30.23,3,0,6,0.00
2014-9-25,87,68,52,59,52,48,85,61,34,30.31,30.15,2,0,6,0.00
2014-9-26,87,71,57,59,53,45,86,58,24,30.23,30.13,2,0,6,0.00
2014-9-27,88,72,61,56,53,47,83,56,25,30.21,30.09,2,0,5,0.00
2014-9-28,90,72,59,64,56,52,84,61,29,30.14,29.99,3,0,6,0.03
2014-9-29,89,74,63,65,56,44,90,60,22,29.99,29.87,3,0,7,0.00
2014-9-30,84,67,56,58,54,47,84,65,36,29.95,29.85,4,1,7,0.00
2014-10-1,80,64,52,53,50,47,89,63,34,30.03,29.94,2,0,5,0.00
2014-10-2,91,74,59,58,54,50,85,54,27,30.02,29.80,7,2,12,0.00
2014-10-3,77,69,50,65,57,43,82,68,52,29.84,29.59,12,4,18,0.14
2014-10-4,54,49,44,43,34,23,79,57,34,29.89,29.79,9,4,20,0.00
2014-10-5,62,52,42,42,33,25,68,49,26,29.90,29.73,9,3,17,0.00
2014-10-6,64,56,52,55,48,38,88,77,51,29.78,29.70,7,1,11,0.23
2014-10-7,64,55,49,58,51,46,93,87,69,29.86,29.72,8,1,9,0.55
2014-10-8,74,61,50,54,46,37,93,65,27,30.07,29.86,4,1,12,0.01
2014-10-9,60,54,47,51,47,44,89,78,66,30.15,30.05,2,0,6,0.00
2014-10-10,58,55,51,53,50,47,90,83,75,30.08,30.02,2,0,6,0.61
2014-10-11,64,56,51,49,43,38,88,64,42,30.16,30.01,3,1,9,0.00
2014-10-12,68,57,46,58,46,39,82,67,51,30.14,29.96,3,0,6,0.00
2014-10-13,83,72,62,64,61,58,93,71,47,29.99,29.76,8,2,13,0.07
2014-10-14,75,66,58,63,59,52,87,77,51,29.76,29.56,12,3,18,0.53
2014-10-15,60,56,54,54,52,51,89,85,74,29.75,29.71,6,1,9,0.19
2014-10-16,63,58,54,54,52,49,92,81,66,29.84,29.70,5,1,9,0.06
2014-10-17,75,61,51,51,48,43,89,64,31,29.83,29.64,7,3,11,0.00
2014-10-18,60,54,48,46,44,39,87,69,53,30.12,29.80,5,2,11,0.02
2014-10-19,63,52,46,44,40,35,84,65,36,30.24,30.06,2,0,6,0.00
2014-10-20,67,56,46,50,45,41,85,69,48,30.05,29.83,9,3,16,0.01
2014-10-21,59,54,50,50,43,37,81,67,47,30.17,29.88,5,2,11,0.00
2014-10-22,58,51,46,40,38,35,75,62,49,30.30,30.16,3,1,7,0.00
2014-10-23,66,54,44,42,39,37,86,61,34,30.25,30.10,4,0,6,0.00
2014-10-24,73,55,44,46,40,33,88,62,26,30.14,30.00,2,0,6,0.00
2014-10-25,78,61,47,56,48,42,88,65,40,30.03,29.87,4,1,6,0.00
2014-10-26,74,62,47,50,34,25,68,39,17,30.01,29.89,2,0,6,0.00
2014-10-27,85,65,47,59,48,38,77,56,35,29.95,29.80,10,2,16,0.00
2014-10-28,74,67,58,61,54,43,79,64,51,30.01,29.83,11,3,16,0.02
2014-10-29,64,56,48,44,36,32,62,49,31,30.12,29.99,4,1,14,0.00
2014-10-30,60,50,41,36,33,29,81,54,32,30.17,30.04,2,0,14,0.00
2014-10-31,49,44,39,42,38,31,86,79,68,30.03,29.91,9,2,14,0.10
2014-11-1,42,38,36,31,27,23,78,66,49,30.37,30.02,8,4,14,0.00
2014-11-2,53,39,29,24,21,14,75,50,21,30.50,30.36,1,0,14,0.00
2014-11-3,65,50,33,27,22,13,70,40,14,30.38,30.18,10,2,14,0.00
2014-11-4,69,56,45,53,38,23,89,52,30,30.18,30.04,11,3,19,0.06
2014-11-5,59,54,49,52,47,42,91,77,56,30.23,30.01,2,0,14,0.02
2014-11-6,54,50,43,52,43,34,92,78,58,30.06,29.83,7,3,14,0.01
2014-11-7,52,43,36,36,29,25,75,59,36,30.22,30.02,5,2,14,0.00
2014-11-8,60,45,35,37,32,28,76,62,39,30.02,29.82,8,2,14,0.00
2014-11-9,57,47,36,32,28,22,77,51,28,30.05,29.92,6,1,14,0.00
2014-11-10,67,52,37,34,30,24,78,48,20,29.99,29.78,7,2,14,0.00
2014-11-11,68,54,39,55,41,32,86,61,42,30.05,29.75,11,3,14,0.05
2014-11-12,40,38,35,33,26,22,80,62,51,30.28,30.06,5,2,14,0.00
2014-11-13,34,31,27,22,16,9,63,55,42,30.34,30.25,3,2,14,0.00
2014-11-14,37,29,24,19,14,8,77,56,31,30.42,30.33,5,1,14,0.00
2014-11-15,39,30,18,18,14,11,82,55,33,30.48,30.25,2,0,14,0.00
2014-11-16,41,36,32,35,28,18,90,74,48,30.26,29.90,4,0,14,0.15
2014-11-17,36,28,19,33,22,8,92,79,60,30.14,29.80,5,0,14,0.20
2014-11-18,23,19,15,10,7,4,69,59,50,30.33,30.13,9,5,14,0.00
2014-11-19,43,30,16,26,16,6,69,57,44,30.32,29.90,11,4,21,0.03
2014-11-20,34,30,26,22,14,12,63,54,42,30.30,30.08,6,2,21,0.00
2014-11-21,37,29,20,16,10,6,64,47,28,30.56,30.31,2,1,21,0.00
2014-11-22,62,45,24,36,28,12,72,52,35,30.41,30.05,11,2,21,0.04
2014-11-23,63,55,48,54,43,32,89,66,43,30.04,29.24,7,2,21,0.63
2014-11-24,64,53,42,55,42,29,88,67,54,29.92,29.24,18,8,25,0.11
2014-11-25,48,40,35,29,27,25,72,59,44,30.20,29.92,5,2,21,0.00
2014-11-26,43,35,29,27,25,23,80,68,50,30.18,30.04,2,0,21,0.00
2014-11-27,37,32,30,24,22,17,74,65,49,30.42,30.07,4,2,8,0.00
2014-11-28,36,32,28,20,16,13,69,51,39,30.43,30.11,6,2,7,0.00
2014-11-29,59,47,34,47,31,17,65,54,47,30.11,29.86,11,4,14,0.00
2014-11-30,68,63,59,54,50,47,71,63,52,30.05,29.86,11,7,16,0.01
2014-12-1,62,41,33,56,35,22,90,80,62,30.54,30.07,5,2,8,0.57
2014-12-2,39,36,32,36,29,22,92,78,62,30.49,30.17,3,1,7,0.01
2014-12-3,42,38,32,36,31,28,88,76,58,30.41,30.16,5,2,11,0.00
2014-12-4,38,35,30,33,31,27,91,87,81,30.44,30.28,2,0,5,0.16
2014-12-5,48,41,36,46,39,33,94,91,87,30.28,30.03,1,0,3,0.71
2014-12-6,48,43,39,47,37,25,95,81,56,30.55,29.99,6,3,14,0.51
2014-12-7,45,38,33,27,26,23,75,60,47,30.62,30.37,4,1,6,0.00
2014-12-8,47,39,36,32,27,25,70,62,55,30.36,30.17,3,1,6,0.00
2014-12-9,45,41,39,39,36,31,86,81,73,30.24,30.06,3,1,14,0.02
2014-12-10,39,36,33,31,26,21,75,65,59,30.29,30.20,4,2,14,0.00
2014-12-11,45,36,30,25,22,16,72,58,32,30.28,30.18,5,1,13,0.00
2014-12-12,47,35,28,32,26,23,83,71,39,30.38,30.26,3,1,7,0.00
2014-12-13,46,42,37,35,33,31,82,71,64,30.31,30.18,3,1,6,0.00
2014-12-14,49,46,44,38,36,34,74,69,65,30.20,30.12,2,0,6,0.00
2014-12-15,54,47,42,40,36,34,82,66,51,30.13,29.79,4,1,11,0.04
2014-12-16,52,46,38,48,40,32,89,81,73,30.13,29.68,7,3,16,0.24
2014-12-17,38,33,29,32,26,20,83,74,67,30.30,30.14,3,1,8,0.00
2014-12-18,32,30,27,22,19,17,72,65,58,30.32,30.24,2,0,6,0.00
2014-12-19,32,31,28,22,20,19,79,66,58,30.33,30.26,2,0,6,0.00
2014-12-20,34,33,31,26,24,21,80,70,64,30.32,30.27,2,0,3,0.00
2014-12-21,39,34,29,26,24,22,77,69,56,30.35,30.14,3,1,5,0.00
2014-12-22,53,43,30,43,32,24,82,67,50,30.13,29.71,4,1,6,0.18
2014-12-23,56,52,47,54,50,43,94,92,83,29.81,29.64,1,0,3,0.06
2014-12-24,57,50,41,55,47,34,94,88,75,29.73,29.32,8,2,17,0.17
2014-12-25,42,40,35,35,32,30,84,74,61,30.22,29.73,7,3,11,0.01
2014-12-26,54,42,30,37,32,27,92,69,42,30.28,30.16,7,1,10,0.01
2014-12-27,53,46,39,47,40,33,92,81,61,30.22,30.05,8,1,13,0.35
2014-12-28,48,39,35,46,32,27,93,78,67,30.24,29.98,3,1,10,0.08
2014-12-29,38,34,30,28,24,20,79,67,56,30.40,30.22,3,1,7,0.00
2014-12-30,38,31,26,20,17,14,66,56,41,30.58,30.38,3,1,7,0.00
2014-12-31,31,24,17,17,5,-1,69,46,27,30.61,30.36,6,2,10,0.00
2015-1-1,40,31,22,22,12,2,57,45,31,30.36,30.13,10,4,17,0.00
2015-1-2,40,36,32,31,26,21,75,65,57,30.37,30.23,3,1,7,0.00